When you browse on this site, cookies collect data to enhance your experience and personalize the content and advertising you see.
Visit our Privacy Policy to learn more. By continuing to use the site, you agree to this use of cookies and data.
  • En España
  • Lista de países
  • Para 7 días
  • Temperatura del agua
  • Mapa Satelital
  • El tiempo en el mapa
  • Informadores
  • user-avatar
    Iniciar sesión

    Tiempo cada hora Satif

    Hoy, 17 Diciembre, Lunes

    Tiempo Temperatura Precipitaciones Viento Presión Humedad
    00:00 +8°C° 0 mm 3 mps 675 mmHg 61%
    01:00 +8°C° 0 mm 3 mps 675 mmHg 63%
    02:00 +7°C° 0 mm 2 mps 675 mmHg 64%
    03:00 +7°C° 0 mm 2 mps 675 mmHg 65%
    04:00 +7°C° 0 mm 2 mps 675 mmHg 67%
    05:00 +6°C° 0 mm 2 mps 675 mmHg 70%
    06:00 +7°C° 0 mm 2 mps 676 mmHg 68%
    07:00 +8°C° 0 mm 2 mps 676 mmHg 68%
    08:00 +9°C° 0 mm 3 mps 677 mmHg 68%
    09:00 +9°C° 0 mm 3 mps 677 mmHg 68%
    10:00 +10°C° 0.1 mm 3 mps 677 mmHg 66%
    11:00 +10°C° 0.1 mm 4 mps 678 mmHg 64%
    12:00 +10°C° 0.1 mm 5 mps 678 mmHg 62%
    13:00 +9°C° 0 mm 5 mps 678 mmHg 62%
    14:00 +10°C° 0 mm 4 mps 678 mmHg 62%
    15:00 +10°C° 0 mm 4 mps 678 mmHg 62%
    16:00 +7°C° 0 mm 4 mps 678 mmHg 68%
    17:00 +7°C° 0 mm 3 mps 678 mmHg 74%
    18:00 +6°C° 0 mm 2 mps 678 mmHg 80%
    19:00 +6°C° 0 mm 2 mps 678 mmHg 82%
    20:00 +6°C° 0 mm 1 mps 678 mmHg 85%
    21:00 +5°C° 0 mm 1 mps 679 mmHg 87%
    22:00 +5°C° 0 mm 1 mps 679 mmHg 87%
    23:00 +5°C° 0 mm 1 mps 679 mmHg 87%

    Mañana, 18 Diciembre, Martes

    Tiempo Temperatura Precipitaciones Viento Presión Humedad
    00:00 +4°C° 0 mm 1 mps 679 mmHg 87%
    01:00 +4°C° 0 mm 1 mps 678 mmHg 85%
    02:00 +4°C° 0 mm 1 mps 678 mmHg 83%
    03:00 +4°C° 0 mm 1 mps 678 mmHg 81%
    04:00 +4°C° 0 mm 1 mps 678 mmHg 78%
    05:00 +3°C° 0 mm 1 mps 677 mmHg 75%
    06:00 +3°C° 0 mm 1 mps 677 mmHg 73%
    07:00 +4°C° 0 mm 2 mps 678 mmHg 64%
    08:00 +6°C° 0 mm 2 mps 678 mmHg 56%
    09:00 +8°C° 0 mm 2 mps 679 mmHg 48%
    10:00 +9°C° 0 mm 3 mps 679 mmHg 41%
    11:00 +11°C° 0 mm 3 mps 679 mmHg 35%
    12:00 +12°C° 0 mm 4 mps 679 mmHg 28%
    13:00 +12°C° 0 mm 4 mps 678 mmHg 30%
    14:00 +12°C° 0 mm 3 mps 678 mmHg 33%
    15:00 +12°C° 0 mm 3 mps 677 mmHg 35%
    16:00 +10°C° 0 mm 3 mps 677 mmHg 40%
    17:00 +9°C° 0 mm 3 mps 677 mmHg 46%
    18:00 +7°C° 0 mm 3 mps 676 mmHg 51%
    19:00 +7°C° 0 mm 3 mps 676 mmHg 55%
    20:00 +5°C° 0 mm 3 mps 676 mmHg 58%
    21:00 +5°C° 0 mm 3 mps 676 mmHg 61%
    22:00 +5°C° 0 mm 3 mps 676 mmHg 63%
    23:00 +4°C° 0 mm 3 mps 676 mmHg 64%

    Pasado mañana, 19 Diciembre, Miércoles

    Tiempo Temperatura Precipitaciones Viento Presión Humedad
    00:00 +4°C° 0 mm 3 mps 676 mmHg 66%
    01:00 +4°C° 0 mm 3 mps 676 mmHg 67%
    02:00 +4°C° 0 mm 3 mps 675 mmHg 68%
    03:00 +4°C° 0 mm 3 mps 675 mmHg 68%
    04:00 +4°C° 0 mm 3 mps 675 mmHg 69%
    05:00 +4°C° 0 mm 3 mps 675 mmHg 69%
    06:00 +4°C° 0 mm 3 mps 675 mmHg 69%
    07:00 +5°C° 0 mm 3 mps 676 mmHg 65%
    08:00 +7°C° 0 mm 3 mps 676 mmHg 61%
    09:00 +9°C° 0 mm 3 mps 677 mmHg 57%
    10:00 +10°C° 0 mm 3 mps 677 mmHg 52%
    11:00 +11°C° 0 mm 3 mps 677 mmHg 48%
    12:00 +13°C° 0 mm 3 mps 677 mmHg 43%
    13:00 +13°C° 0 mm 3 mps 676 mmHg 44%
    14:00 +14°C° 0 mm 2 mps 676 mmHg 44%
    15:00 +14°C° 0 mm 2 mps 676 mmHg 45%
    16:00 +12°C° 0 mm 2 mps 676 mmHg 50%
    17:00 +10°C° 0 mm 2 mps 676 mmHg 54%
    18:00 +10°C° 0 mm 1 mps 675 mmHg 59%
    19:00 +9°C° 0 mm 1 mps 675 mmHg 59%
    20:00 +9°C° 0 mm 1 mps 676 mmHg 59%
    21:00 +9°C° 0 mm 1 mps 676 mmHg 59%
    22:00 +9°C° 0 mm 1 mps 676 mmHg 61%
    23:00 +8°C° 0 mm 1 mps 676 mmHg 62%

    20 Diciembre, Jueves

    Tiempo Temperatura Precipitaciones Viento Presión Humedad
    00:00 +8°C° 0 mm 1 mps 676 mmHg 63%
    01:00 +7°C° 0 mm 1 mps 676 mmHg 64%
    02:00 +7°C° 0 mm 1 mps 675 mmHg 66%
    03:00 +7°C° 0 mm 1 mps 675 mmHg 67%
    04:00 +6°C° 0 mm 1 mps 675 mmHg 70%
    05:00 +6°C° 0 mm 1 mps 675 mmHg 73%
    06:00 +6°C° 0 mm 1 mps 676 mmHg 76%
    07:00 +7°C° 0 mm 1 mps 676 mmHg 74%
    08:00 +8°C° 0 mm 1 mps 677 mmHg 72%
    09:00 +10°C° 0 mm 1 mps 678 mmHg 70%
    10:00 +10°C° 0 mm 1 mps 678 mmHg 67%
    11:00 +10°C° 0 mm 2 mps 678 mmHg 64%
    12:00 +12°C° 0 mm 2 mps 678 mmHg 61%
    13:00 +12°C° 0 mm 2 mps 678 mmHg 61%
    14:00 +12°C° 0 mm 2 mps 677 mmHg 60%
    15:00 +12°C° 0 mm 2 mps 677 mmHg 60%
    16:00 +10°C° 0 mm 2 mps 677 mmHg 65%
    17:00 +9°C° 0 mm 2 mps 677 mmHg 71%
    18:00 +8°C° 0 mm 2 mps 677 mmHg 77%
    19:00 +9°C° 0 mm 1 mps 678 mmHg 79%
    20:00 +8°C° 0 mm 1 mps 678 mmHg 80%
    21:00 +8°C° 0 mm 1 mps 678 mmHg 82%
    22:00 +7°C° 0 mm 1 mps 678 mmHg 84%
    23:00 +7°C° 0 mm 1 mps 678 mmHg 86%

    21 Diciembre, Viernes

    Tiempo Temperatura Precipitaciones Viento Presión Humedad
    00:00 +6°C° 0 mm 1 mps 678 mmHg 88%
    01:00 +6°C° 0 mm 1 mps 678 mmHg 88%
    02:00 +5°C° 0 mm 0 mps 678 mmHg 89%
    03:00 +4°C° 0 mm 0 mps 678 mmHg 90%
    04:00 +4°C° 0 mm 0 mps 678 mmHg 90%
    05:00 +4°C° 0 mm 0 mps 678 mmHg 90%
    06:00 +3°C° 0 mm 0 mps 678 mmHg 89%
    07:00 +5°C° 0 mm 0 mps 679 mmHg 83%
    08:00 +6°C° 0 mm 0 mps 680 mmHg 77%
    09:00 +8°C° 0 mm 0 mps 680 mmHg 71%
    10:00 +10°C° 0 mm 1 mps 680 mmHg 65%
    11:00 +11°C° 0 mm 1 mps 681 mmHg 59%
    12:00 +12°C° 0 mm 1 mps 681 mmHg 53%
    13:00 +12°C° 0 mm 1 mps 680 mmHg 52%
    14:00 +12°C° 0 mm 2 mps 680 mmHg 51%
    15:00 +12°C° 0 mm 2 mps 680 mmHg 50%
    16:00 +10°C° 0 mm 2 mps 680 mmHg 57%
    17:00 +9°C° 0 mm 1 mps 680 mmHg 63%
    18:00 +8°C° 0 mm 1 mps 680 mmHg 70%
    19:00 +8°C° 0 mm 1 mps 680 mmHg 72%
    20:00 +7°C° 0 mm 1 mps 680 mmHg 73%
    21:00 +7°C° 0 mm 1 mps 680 mmHg 75%
    22:00 +7°C° 0 mm 1 mps 680 mmHg 74%
    23:00 +6°C° 0 mm 1 mps 680 mmHg 73%

    22 Diciembre, Sábado

    Tiempo Temperatura Precipitaciones Viento Presión Humedad
    00:00 +6°C° 0 mm 1 mps 680 mmHg 73%
    01:00 +6°C° 0 mm 1 mps 680 mmHg 73%
    02:00 +6°C° 0 mm 1 mps 679 mmHg 74%
    03:00 +5°C° 0 mm 1 mps 679 mmHg 75%
    04:00 +5°C° 0 mm 1 mps 679 mmHg 75%
    05:00 +5°C° 0 mm 1 mps 679 mmHg 76%
    06:00 +5°C° 0 mm 1 mps 680 mmHg 77%
    07:00 +6°C° 0 mm 1 mps 680 mmHg 71%
    08:00 +7°C° 0 mm 2 mps 681 mmHg 64%
    09:00 +8°C° 0 mm 2 mps 682 mmHg 58%
    10:00 +10°C° 0 mm 2 mps 681 mmHg 53%
    11:00 +12°C° 0 mm 2 mps 681 mmHg 48%
    12:00 +13°C° 0 mm 2 mps 681 mmHg 43%
    13:00 +13°C° 0 mm 2 mps 681 mmHg 43%
    14:00 +13°C° 0 mm 2 mps 681 mmHg 44%
    15:00 +13°C° 0 mm 2 mps 681 mmHg 44%
    16:00 +12°C° 0 mm 1 mps 680 mmHg 51%
    17:00 +10°C° 0 mm 1 mps 680 mmHg 57%
    18:00 +9°C° 0 mm 1 mps 680 mmHg 64%
    19:00 +8°C° 0 mm 1 mps 680 mmHg 65%
    20:00 +8°C° 0 mm 1 mps 680 mmHg 66%
    21:00 +8°C° 0 mm 1 mps 680 mmHg 68%
    22:00 +7°C° 0 mm 1 mps 680 mmHg 68%
    23:00 +7°C° 0 mm 1 mps 680 mmHg 68%
    Mostrar más